{"data":{"norad_id":53548,"intl_designator":"2022-101X","name":"STARLINK-4513","alt_names":[],"object_type":"PAYLOAD","status":"ACTIVE","operator":null,"country":"US","launch_date":"2022-08-19","launch_site_code":"AFETR","launch_vehicle":null,"mission":null,"orbit_class":"UNKNOWN","rcs_meters":null,"size_class":null,"mass_kg":null,"dimensions":null,"purposes":["comms"],"wikipedia_slug":null,"has_3d_model":false,"image_url":null,"decayed_at":null,"tle_current":{"epoch":"2026-09-20T13:20:14.289216Z","epoch_age_seconds":73475,"freshness":"FRESH","line1":"1 53548U 22101X   26263.55572094  .00000346  00000+0  39844-4 0  9991","line2":"2 53548  53.1597 268.6712 0001256  81.0537 279.0597 15.08834666225721","mean_motion":15.08834666,"eccentricity":0.0001256,"inclination_deg":53.1597,"raan_deg":268.6712,"arg_perigee_deg":81.0537,"mean_anomaly_deg":279.0597,"bstar":3.9844e-5,"rev_number":22572,"period_min":95.437892066565,"perigee_km":538.89080509161,"apogee_km":540.62858074087,"semimajor_km":6917.8966929162,"source":"CELESTRAK","updated_at":"2026-09-21T09:00:32.923914Z"}}}